Index of /20260506/WXO-DD/model_gdps/15km/12/063
Name Last modified Size Description
Parent Directory -
20260506T12Z_MSC_GDPS_AbsoluteVorticity_IsbL-0200_LatLon0.15_PT063H.grib2 2026-05-06 18:43 1.5M
20260506T12Z_MSC_GDPS_AbsoluteVorticity_IsbL-0250_LatLon0.15_PT063H.grib2 2026-05-06 18:43 1.3M
20260506T12Z_MSC_GDPS_AbsoluteVorticity_IsbL-0500_LatLon0.15_PT063H.grib2 2026-05-06 18:43 1.2M
20260506T12Z_MSC_GDPS_AbsoluteVorticity_IsbL-0700_LatLon0.15_PT063H.grib2 2026-05-06 18:43 1.3M
20260506T12Z_MSC_GDPS_AbsoluteVorticity_IsbL-0850_LatLon0.15_PT063H.grib2 2026-05-06 18:43 1.6M
20260506T12Z_MSC_GDPS_AirTemp_AGL-120m_LatLon0.15_PT063H.grib2 2026-05-06 18:43 902K
20260506T12Z_MSC_GDPS_AirTemp_AGL-2m_LatLon0.15_PT063H.grib2 2026-05-06 18:43 1.0M
20260506T12Z_MSC_GDPS_AirTemp_AGL-40m_LatLon0.15_PT063H.grib2 2026-05-06 18:43 922K
20260506T12Z_MSC_GDPS_AirTemp_AGL-80m_LatLon0.15_PT063H.grib2 2026-05-06 18:43 911K
20260506T12Z_MSC_GDPS_AirTemp_IsbL-0001_LatLon0.15_PT063H.grib2 2026-05-06 18:43 666K
20260506T12Z_MSC_GDPS_AirTemp_IsbL-0005_LatLon0.15_PT063H.grib2 2026-05-06 18:43 699K
20260506T12Z_MSC_GDPS_AirTemp_IsbL-0010_LatLon0.15_PT063H.grib2 2026-05-06 18:43 706K
20260506T12Z_MSC_GDPS_AirTemp_IsbL-0020_LatLon0.15_PT063H.grib2 2026-05-06 18:43 722K
20260506T12Z_MSC_GDPS_AirTemp_IsbL-0030_LatLon0.15_PT063H.grib2 2026-05-06 18:43 840K
20260506T12Z_MSC_GDPS_AirTemp_IsbL-0050_LatLon0.15_PT063H.grib2 2026-05-06 18:43 886K
20260506T12Z_MSC_GDPS_AirTemp_IsbL-0100_LatLon0.15_PT063H.grib2 2026-05-06 18:43 958K
20260506T12Z_MSC_GDPS_AirTemp_IsbL-0150_LatLon0.15_PT063H.grib2 2026-05-06 18:43 970K
20260506T12Z_MSC_GDPS_AirTemp_IsbL-0175_LatLon0.15_PT063H.grib2 2026-05-06 18:43 961K
20260506T12Z_MSC_GDPS_AirTemp_IsbL-0200_LatLon0.15_PT063H.grib2 2026-05-06 18:43 970K
20260506T12Z_MSC_GDPS_AirTemp_IsbL-0225_LatLon0.15_PT063H.grib2 2026-05-06 18:43 969K
20260506T12Z_MSC_GDPS_AirTemp_IsbL-0250_LatLon0.15_PT063H.grib2 2026-05-06 18:43 1.0M
20260506T12Z_MSC_GDPS_AirTemp_IsbL-0275_LatLon0.15_PT063H.grib2 2026-05-06 18:43 1.0M
20260506T12Z_MSC_GDPS_AirTemp_IsbL-0300_LatLon0.15_PT063H.grib2 2026-05-06 18:43 1.0M
20260506T12Z_MSC_GDPS_AirTemp_IsbL-0350_LatLon0.15_PT063H.grib2 2026-05-06 18:43 927K
20260506T12Z_MSC_GDPS_AirTemp_IsbL-0400_LatLon0.15_PT063H.grib2 2026-05-06 18:43 939K
20260506T12Z_MSC_GDPS_AirTemp_IsbL-0450_LatLon0.15_PT063H.grib2 2026-05-06 18:43 960K
20260506T12Z_MSC_GDPS_AirTemp_IsbL-0500_LatLon0.15_PT063H.grib2 2026-05-06 18:43 1.0M
20260506T12Z_MSC_GDPS_AirTemp_IsbL-0550_LatLon0.15_PT063H.grib2 2026-05-06 18:43 801K
20260506T12Z_MSC_GDPS_AirTemp_IsbL-0600_LatLon0.15_PT063H.grib2 2026-05-06 18:43 890K
20260506T12Z_MSC_GDPS_AirTemp_IsbL-0650_LatLon0.15_PT063H.grib2 2026-05-06 18:43 913K
20260506T12Z_MSC_GDPS_AirTemp_IsbL-0700_LatLon0.15_PT063H.grib2 2026-05-06 18:43 948K
20260506T12Z_MSC_GDPS_AirTemp_IsbL-0750_LatLon0.15_PT063H.grib2 2026-05-06 18:43 1.0M
20260506T12Z_MSC_GDPS_AirTemp_IsbL-0800_LatLon0.15_PT063H.grib2 2026-05-06 18:43 1.1M
20260506T12Z_MSC_GDPS_AirTemp_IsbL-0850_LatLon0.15_PT063H.grib2 2026-05-06 18:43 1.1M
20260506T12Z_MSC_GDPS_AirTemp_IsbL-0875_LatLon0.15_PT063H.grib2 2026-05-06 18:43 1.2M
20260506T12Z_MSC_GDPS_AirTemp_IsbL-0900_LatLon0.15_PT063H.grib2 2026-05-06 18:43 1.1M
20260506T12Z_MSC_GDPS_AirTemp_IsbL-0925_LatLon0.15_PT063H.grib2 2026-05-06 18:43 1.1M
20260506T12Z_MSC_GDPS_AirTemp_IsbL-0950_LatLon0.15_PT063H.grib2 2026-05-06 18:43 1.1M
20260506T12Z_MSC_GDPS_AirTemp_IsbL-0970_LatLon0.15_PT063H.grib2 2026-05-06 18:43 1.1M
20260506T12Z_MSC_GDPS_AirTemp_IsbL-0985_LatLon0.15_PT063H.grib2 2026-05-06 18:43 1.1M
20260506T12Z_MSC_GDPS_AirTemp_IsbL-1000_LatLon0.15_PT063H.grib2 2026-05-06 18:43 1.1M
20260506T12Z_MSC_GDPS_AirTemp_IsbL-1015_LatLon0.15_PT063H.grib2 2026-05-06 18:43 1.1M
20260506T12Z_MSC_GDPS_Albedo_Sfc_LatLon0.15_PT063H.grib2 2026-05-06 18:43 243K
20260506T12Z_MSC_GDPS_CAPE_Sfc_LatLon0.15_PT063H.grib2 2026-05-06 18:43 3.9M
20260506T12Z_MSC_GDPS_CIN_Sfc_LatLon0.15_PT063H.grib2 2026-05-06 18:43 2.8M
20260506T12Z_MSC_GDPS_CloudWater_EAtm_LatLon0.15_PT063H.grib2 2026-05-06 18:43 537K
20260506T12Z_MSC_GDPS_ConvectivePrecip-Accum_Sfc_LatLon0.15_PT063H.grib2 2026-05-06 18:43 2.9M
20260506T12Z_MSC_GDPS_DewPointDepression_AGL-2m_LatLon0.15_PT063H.grib2 2026-05-06 18:43 761K
20260506T12Z_MSC_GDPS_DewPointDepression_IsbL-0010_LatLon0.15_PT063H.grib2 2026-05-06 18:43 91K
20260506T12Z_MSC_GDPS_DewPointDepression_IsbL-0020_LatLon0.15_PT063H.grib2 2026-05-06 18:43 87K
20260506T12Z_MSC_GDPS_DewPointDepression_IsbL-0030_LatLon0.15_PT063H.grib2 2026-05-06 18:43 96K
20260506T12Z_MSC_GDPS_DewPointDepression_IsbL-0050_LatLon0.15_PT063H.grib2 2026-05-06 18:43 388K
20260506T12Z_MSC_GDPS_DewPointDepression_IsbL-0100_LatLon0.15_PT063H.grib2 2026-05-06 18:43 401K
20260506T12Z_MSC_GDPS_DewPointDepression_IsbL-0150_LatLon0.15_PT063H.grib2 2026-05-06 18:43 495K
20260506T12Z_MSC_GDPS_DewPointDepression_IsbL-0175_LatLon0.15_PT063H.grib2 2026-05-06 18:43 596K
20260506T12Z_MSC_GDPS_DewPointDepression_IsbL-0200_LatLon0.15_PT063H.grib2 2026-05-06 18:43 700K
20260506T12Z_MSC_GDPS_DewPointDepression_IsbL-0225_LatLon0.15_PT063H.grib2 2026-05-06 18:43 777K
20260506T12Z_MSC_GDPS_DewPointDepression_IsbL-0250_LatLon0.15_PT063H.grib2 2026-05-06 18:43 874K
20260506T12Z_MSC_GDPS_DewPointDepression_IsbL-0275_LatLon0.15_PT063H.grib2 2026-05-06 18:43 899K
20260506T12Z_MSC_GDPS_DewPointDepression_IsbL-0300_LatLon0.15_PT063H.grib2 2026-05-06 18:43 940K
20260506T12Z_MSC_GDPS_DewPointDepression_IsbL-0350_LatLon0.15_PT063H.grib2 2026-05-06 18:43 958K
20260506T12Z_MSC_GDPS_DewPointDepression_IsbL-0400_LatLon0.15_PT063H.grib2 2026-05-06 18:43 1.0M
20260506T12Z_MSC_GDPS_DewPointDepression_IsbL-0450_LatLon0.15_PT063H.grib2 2026-05-06 18:43 1.0M
20260506T12Z_MSC_GDPS_DewPointDepression_IsbL-0500_LatLon0.15_PT063H.grib2 2026-05-06 18:43 1.0M
20260506T12Z_MSC_GDPS_DewPointDepression_IsbL-0550_LatLon0.15_PT063H.grib2 2026-05-06 18:43 1.0M
20260506T12Z_MSC_GDPS_DewPointDepression_IsbL-0600_LatLon0.15_PT063H.grib2 2026-05-06 18:43 1.0M
20260506T12Z_MSC_GDPS_DewPointDepression_IsbL-0650_LatLon0.15_PT063H.grib2 2026-05-06 18:43 1.0M
20260506T12Z_MSC_GDPS_DewPointDepression_IsbL-0700_LatLon0.15_PT063H.grib2 2026-05-06 18:43 1.1M
20260506T12Z_MSC_GDPS_DewPointDepression_IsbL-0750_LatLon0.15_PT063H.grib2 2026-05-06 18:43 1.1M
20260506T12Z_MSC_GDPS_DewPointDepression_IsbL-0800_LatLon0.15_PT063H.grib2 2026-05-06 18:43 1.1M
20260506T12Z_MSC_GDPS_DewPointDepression_IsbL-0850_LatLon0.15_PT063H.grib2 2026-05-06 18:43 1.2M
20260506T12Z_MSC_GDPS_DewPointDepression_IsbL-0875_LatLon0.15_PT063H.grib2 2026-05-06 18:43 1.1M
20260506T12Z_MSC_GDPS_DewPointDepression_IsbL-0900_LatLon0.15_PT063H.grib2 2026-05-06 18:43 1.1M
20260506T12Z_MSC_GDPS_DewPointDepression_IsbL-0925_LatLon0.15_PT063H.grib2 2026-05-06 18:43 1.0M
20260506T12Z_MSC_GDPS_DewPointDepression_IsbL-0950_LatLon0.15_PT063H.grib2 2026-05-06 18:43 1.0M
20260506T12Z_MSC_GDPS_DewPointDepression_IsbL-0970_LatLon0.15_PT063H.grib2 2026-05-06 18:43 1.0M
20260506T12Z_MSC_GDPS_DewPointDepression_IsbL-0985_LatLon0.15_PT063H.grib2 2026-05-06 18:43 1.0M
20260506T12Z_MSC_GDPS_DewPointDepression_IsbL-1000_LatLon0.15_PT063H.grib2 2026-05-06 18:43 970K
20260506T12Z_MSC_GDPS_DewPointDepression_IsbL-1015_LatLon0.15_PT063H.grib2 2026-05-06 18:43 912K
20260506T12Z_MSC_GDPS_DewPoint_AGL-2m_LatLon0.15_PT063H.grib2 2026-05-06 18:43 604K
20260506T12Z_MSC_GDPS_DownwardLongwaveRadiationFlux-Accum_Sfc_LatLon0.15_PT063H.grib2 2026-05-06 18:43 882K
20260506T12Z_MSC_GDPS_DownwardShortwaveRadiationFlux-Accum_NTAtm_LatLon0.15_PT063H.grib2 2026-05-06 18:43 211K
20260506T12Z_MSC_GDPS_DownwardShortwaveRadiationFlux-Accum_Sfc_LatLon0.15_PT063H.grib2 2026-05-06 18:43 1.1M
20260506T12Z_MSC_GDPS_FreezingRain-Accum1h_Sfc_LatLon0.15_PT063H.grib2 2026-05-06 18:43 37K
20260506T12Z_MSC_GDPS_FreezingRain-Accum3h_Sfc_LatLon0.15_PT063H.grib2 2026-05-06 18:43 50K
20260506T12Z_MSC_GDPS_FreezingRain-Accum_Sfc_LatLon0.15_PT063H.grib2 2026-05-06 18:43 271K
20260506T12Z_MSC_GDPS_GeopotentialHeight_IsbL-0001_LatLon0.15_PT063H.grib2 2026-05-06 18:43 438K
20260506T12Z_MSC_GDPS_GeopotentialHeight_IsbL-0005_LatLon0.15_PT063H.grib2 2026-05-06 18:43 486K
20260506T12Z_MSC_GDPS_GeopotentialHeight_IsbL-0010_LatLon0.15_PT063H.grib2 2026-05-06 18:43 477K
20260506T12Z_MSC_GDPS_GeopotentialHeight_IsbL-0020_LatLon0.15_PT063H.grib2 2026-05-06 18:43 416K
20260506T12Z_MSC_GDPS_GeopotentialHeight_IsbL-0030_LatLon0.15_PT063H.grib2 2026-05-06 18:43 421K
20260506T12Z_MSC_GDPS_GeopotentialHeight_IsbL-0050_LatLon0.15_PT063H.grib2 2026-05-06 18:43 576K
20260506T12Z_MSC_GDPS_GeopotentialHeight_IsbL-0100_LatLon0.15_PT063H.grib2 2026-05-06 18:43 613K
20260506T12Z_MSC_GDPS_GeopotentialHeight_IsbL-0150_LatLon0.15_PT063H.grib2 2026-05-06 18:43 632K
20260506T12Z_MSC_GDPS_GeopotentialHeight_IsbL-0175_LatLon0.15_PT063H.grib2 2026-05-06 18:43 636K
20260506T12Z_MSC_GDPS_GeopotentialHeight_IsbL-0200_LatLon0.15_PT063H.grib2 2026-05-06 18:43 641K
20260506T12Z_MSC_GDPS_GeopotentialHeight_IsbL-0225_LatLon0.15_PT063H.grib2 2026-05-06 18:43 636K
20260506T12Z_MSC_GDPS_GeopotentialHeight_IsbL-0250_LatLon0.15_PT063H.grib2 2026-05-06 18:43 640K
20260506T12Z_MSC_GDPS_GeopotentialHeight_IsbL-0275_LatLon0.15_PT063H.grib2 2026-05-06 18:43 641K
20260506T12Z_MSC_GDPS_GeopotentialHeight_IsbL-0300_LatLon0.15_PT063H.grib2 2026-05-06 18:43 632K
20260506T12Z_MSC_GDPS_GeopotentialHeight_IsbL-0350_LatLon0.15_PT063H.grib2 2026-05-06 18:43 631K
20260506T12Z_MSC_GDPS_GeopotentialHeight_IsbL-0400_LatLon0.15_PT063H.grib2 2026-05-06 18:43 621K
20260506T12Z_MSC_GDPS_GeopotentialHeight_IsbL-0450_LatLon0.15_PT063H.grib2 2026-05-06 18:43 613K
20260506T12Z_MSC_GDPS_GeopotentialHeight_IsbL-0500_LatLon0.15_PT063H.grib2 2026-05-06 18:43 534K
20260506T12Z_MSC_GDPS_GeopotentialHeight_IsbL-0550_LatLon0.15_PT063H.grib2 2026-05-06 18:43 526K
20260506T12Z_MSC_GDPS_GeopotentialHeight_IsbL-0600_LatLon0.15_PT063H.grib2 2026-05-06 18:43 523K
20260506T12Z_MSC_GDPS_GeopotentialHeight_IsbL-0650_LatLon0.15_PT063H.grib2 2026-05-06 18:43 521K
20260506T12Z_MSC_GDPS_GeopotentialHeight_IsbL-0700_LatLon0.15_PT063H.grib2 2026-05-06 18:43 689K
20260506T12Z_MSC_GDPS_GeopotentialHeight_IsbL-0750_LatLon0.15_PT063H.grib2 2026-05-06 18:43 689K
20260506T12Z_MSC_GDPS_GeopotentialHeight_IsbL-0800_LatLon0.15_PT063H.grib2 2026-05-06 18:43 698K
20260506T12Z_MSC_GDPS_GeopotentialHeight_IsbL-0850_LatLon0.15_PT063H.grib2 2026-05-06 18:43 711K
20260506T12Z_MSC_GDPS_GeopotentialHeight_IsbL-0875_LatLon0.15_PT063H.grib2 2026-05-06 18:43 717K
20260506T12Z_MSC_GDPS_GeopotentialHeight_IsbL-0900_LatLon0.15_PT063H.grib2 2026-05-06 18:43 727K
20260506T12Z_MSC_GDPS_GeopotentialHeight_IsbL-0925_LatLon0.15_PT063H.grib2 2026-05-06 18:43 734K
20260506T12Z_MSC_GDPS_GeopotentialHeight_IsbL-0950_LatLon0.15_PT063H.grib2 2026-05-06 18:43 741K
20260506T12Z_MSC_GDPS_GeopotentialHeight_IsbL-0970_LatLon0.15_PT063H.grib2 2026-05-06 18:43 753K
20260506T12Z_MSC_GDPS_GeopotentialHeight_IsbL-0985_LatLon0.15_PT063H.grib2 2026-05-06 18:43 768K
20260506T12Z_MSC_GDPS_GeopotentialHeight_IsbL-1000_LatLon0.15_PT063H.grib2 2026-05-06 18:43 787K
20260506T12Z_MSC_GDPS_GeopotentialHeight_IsbL-1015_LatLon0.15_PT063H.grib2 2026-05-06 18:43 808K
20260506T12Z_MSC_GDPS_Humidex_Sfc_LatLon0.15_PT063H.grib2 2026-05-06 18:43 5.3M
20260506T12Z_MSC_GDPS_IcePellets-Accum1h_Sfc_LatLon0.15_PT063H.grib2 2026-05-06 18:43 16K
20260506T12Z_MSC_GDPS_IcePellets-Accum3h_Sfc_LatLon0.15_PT063H.grib2 2026-05-06 18:43 18K
20260506T12Z_MSC_GDPS_IcePellets-Accum_Sfc_LatLon0.15_PT063H.grib2 2026-05-06 18:43 67K
20260506T12Z_MSC_GDPS_KIndex_Sfc_LatLon0.15_PT063H.grib2 2026-05-06 18:43 6.5M
20260506T12Z_MSC_GDPS_LatentHeatNetFlux_Sfc_LatLon0.15_PT063H.grib2 2026-05-06 18:43 692K
20260506T12Z_MSC_GDPS_LiftedIndex-MU-VT_IsbL-0500_LatLon0.15_PT063H.grib2 2026-05-06 18:43 5.4M
20260506T12Z_MSC_GDPS_NetLongwaveRadiationFlux-Accum_Sfc_LatLon0.15_PT063H.grib2 2026-05-06 18:43 939K
20260506T12Z_MSC_GDPS_NetShortwaveRadiationFlux-Accum_Sfc_LatLon0.15_PT063H.grib2 2026-05-06 18:43 1.1M
20260506T12Z_MSC_GDPS_O3MixingRatio_Sfc_LatLon0.15_PT063H.grib2 2026-05-06 18:20 1.9M
20260506T12Z_MSC_GDPS_O3_EAtm_LatLon0.15_PT063H.grib2 2026-05-06 18:20 2.5M
20260506T12Z_MSC_GDPS_PlanetaryBoundaryLayerHeight_Sfc_LatLon0.15_PT063H.grib2 2026-05-06 18:43 2.4M
20260506T12Z_MSC_GDPS_Precip-Accum1h_Sfc_LatLon0.15_PT063H.grib2 2026-05-06 18:43 3.2M
20260506T12Z_MSC_GDPS_Precip-Accum3h_Sfc_LatLon0.15_PT063H.grib2 2026-05-06 18:43 3.5M
20260506T12Z_MSC_GDPS_Precip-Accum_Sfc_LatLon0.15_PT063H.grib2 2026-05-06 18:43 4.8M
20260506T12Z_MSC_GDPS_PrecipRate_Sfc_LatLon0.15_PT063H.grib2 2026-05-06 18:43 3.2M
20260506T12Z_MSC_GDPS_PrecipType-Instant_Sfc_LatLon0.15_PT063H.grib2 2026-05-06 18:43 1.5M
20260506T12Z_MSC_GDPS_Pressure_MSL_LatLon0.15_PT063H.grib2 2026-05-06 18:43 824K
20260506T12Z_MSC_GDPS_Pressure_PVU-1.5_LatLon0.15_PT063H.grib2 2026-05-06 18:43 5.8M
20260506T12Z_MSC_GDPS_Pressure_PVU-1_LatLon0.15_PT063H.grib2 2026-05-06 18:43 6.0M
20260506T12Z_MSC_GDPS_Pressure_PVU-2_LatLon0.15_PT063H.grib2 2026-05-06 18:43 5.6M
20260506T12Z_MSC_GDPS_Pressure_Sfc_LatLon0.15_PT063H.grib2 2026-05-06 18:43 1.1M
20260506T12Z_MSC_GDPS_RadiativeTemp_Sfc_LatLon0.15_PT063H.grib2 2026-05-06 18:43 658K
20260506T12Z_MSC_GDPS_Rain-Accum1h_Sfc_LatLon0.15_PT063H.grib2 2026-05-06 18:43 1.6M
20260506T12Z_MSC_GDPS_Rain-Accum3h_Sfc_LatLon0.15_PT063H.grib2 2026-05-06 18:43 1.7M
20260506T12Z_MSC_GDPS_Rain-Accum_Sfc_LatLon0.15_PT063H.grib2 2026-05-06 18:43 3.7M
20260506T12Z_MSC_GDPS_RelativeHumidity_AGL-2m_LatLon0.15_PT063H.grib2 2026-05-06 18:43 1.0M
20260506T12Z_MSC_GDPS_RelativeHumidity_IsbL-0010_LatLon0.15_PT063H.grib2 2026-05-06 18:43 159K
20260506T12Z_MSC_GDPS_RelativeHumidity_IsbL-0020_LatLon0.15_PT063H.grib2 2026-05-06 18:43 177K
20260506T12Z_MSC_GDPS_RelativeHumidity_IsbL-0030_LatLon0.15_PT063H.grib2 2026-05-06 18:43 194K
20260506T12Z_MSC_GDPS_RelativeHumidity_IsbL-0050_LatLon0.15_PT063H.grib2 2026-05-06 18:43 341K
20260506T12Z_MSC_GDPS_RelativeHumidity_IsbL-0100_LatLon0.15_PT063H.grib2 2026-05-06 18:43 508K
20260506T12Z_MSC_GDPS_RelativeHumidity_IsbL-0150_LatLon0.15_PT063H.grib2 2026-05-06 18:43 682K
20260506T12Z_MSC_GDPS_RelativeHumidity_IsbL-0175_LatLon0.15_PT063H.grib2 2026-05-06 18:43 805K
20260506T12Z_MSC_GDPS_RelativeHumidity_IsbL-0200_LatLon0.15_PT063H.grib2 2026-05-06 18:43 712K
20260506T12Z_MSC_GDPS_RelativeHumidity_IsbL-0225_LatLon0.15_PT063H.grib2 2026-05-06 18:43 789K
20260506T12Z_MSC_GDPS_RelativeHumidity_IsbL-0250_LatLon0.15_PT063H.grib2 2026-05-06 18:43 862K
20260506T12Z_MSC_GDPS_RelativeHumidity_IsbL-0275_LatLon0.15_PT063H.grib2 2026-05-06 18:43 881K
20260506T12Z_MSC_GDPS_RelativeHumidity_IsbL-0300_LatLon0.15_PT063H.grib2 2026-05-06 18:43 923K
20260506T12Z_MSC_GDPS_RelativeHumidity_IsbL-0350_LatLon0.15_PT063H.grib2 2026-05-06 18:43 935K
20260506T12Z_MSC_GDPS_RelativeHumidity_IsbL-0400_LatLon0.15_PT063H.grib2 2026-05-06 18:43 954K
20260506T12Z_MSC_GDPS_RelativeHumidity_IsbL-0450_LatLon0.15_PT063H.grib2 2026-05-06 18:43 969K
20260506T12Z_MSC_GDPS_RelativeHumidity_IsbL-0500_LatLon0.15_PT063H.grib2 2026-05-06 18:43 1.0M
20260506T12Z_MSC_GDPS_RelativeHumidity_IsbL-0550_LatLon0.15_PT063H.grib2 2026-05-06 18:43 1.0M
20260506T12Z_MSC_GDPS_RelativeHumidity_IsbL-0600_LatLon0.15_PT063H.grib2 2026-05-06 18:43 1.1M
20260506T12Z_MSC_GDPS_RelativeHumidity_IsbL-0650_LatLon0.15_PT063H.grib2 2026-05-06 18:43 1.1M
20260506T12Z_MSC_GDPS_RelativeHumidity_IsbL-0700_LatLon0.15_PT063H.grib2 2026-05-06 18:43 1.1M
20260506T12Z_MSC_GDPS_RelativeHumidity_IsbL-0750_LatLon0.15_PT063H.grib2 2026-05-06 18:43 1.2M
20260506T12Z_MSC_GDPS_RelativeHumidity_IsbL-0800_LatLon0.15_PT063H.grib2 2026-05-06 18:43 1.2M
20260506T12Z_MSC_GDPS_RelativeHumidity_IsbL-0850_LatLon0.15_PT063H.grib2 2026-05-06 18:43 1.3M
20260506T12Z_MSC_GDPS_RelativeHumidity_IsbL-0875_LatLon0.15_PT063H.grib2 2026-05-06 18:43 1.3M
20260506T12Z_MSC_GDPS_RelativeHumidity_IsbL-0900_LatLon0.15_PT063H.grib2 2026-05-06 18:43 1.2M
20260506T12Z_MSC_GDPS_RelativeHumidity_IsbL-0925_LatLon0.15_PT063H.grib2 2026-05-06 18:43 1.2M
20260506T12Z_MSC_GDPS_RelativeHumidity_IsbL-0950_LatLon0.15_PT063H.grib2 2026-05-06 18:43 1.2M
20260506T12Z_MSC_GDPS_RelativeHumidity_IsbL-0970_LatLon0.15_PT063H.grib2 2026-05-06 18:43 1.2M
20260506T12Z_MSC_GDPS_RelativeHumidity_IsbL-0985_LatLon0.15_PT063H.grib2 2026-05-06 18:43 1.1M
20260506T12Z_MSC_GDPS_RelativeHumidity_IsbL-1000_LatLon0.15_PT063H.grib2 2026-05-06 18:43 1.1M
20260506T12Z_MSC_GDPS_RelativeHumidity_IsbL-1015_LatLon0.15_PT063H.grib2 2026-05-06 18:43 1.0M
20260506T12Z_MSC_GDPS_RelativeVorticity_IsbL-0200_LatLon0.15_PT063H.grib2 2026-05-06 18:43 1.5M
20260506T12Z_MSC_GDPS_RelativeVorticity_IsbL-0250_LatLon0.15_PT063H.grib2 2026-05-06 18:43 1.3M
20260506T12Z_MSC_GDPS_RelativeVorticity_IsbL-0500_LatLon0.15_PT063H.grib2 2026-05-06 18:43 1.5M
20260506T12Z_MSC_GDPS_RelativeVorticity_IsbL-0700_LatLon0.15_PT063H.grib2 2026-05-06 18:43 1.3M
20260506T12Z_MSC_GDPS_RelativeVorticity_IsbL-0850_LatLon0.15_PT063H.grib2 2026-05-06 18:43 1.6M
20260506T12Z_MSC_GDPS_Runoff-Accum_Sfc_LatLon0.15_PT063H.grib2 2026-05-06 18:43 103K
20260506T12Z_MSC_GDPS_SensibleHeatNetFlux_Sfc_LatLon0.15_PT063H.grib2 2026-05-06 18:43 470K
20260506T12Z_MSC_GDPS_ShowalterIndex_IsbL-0500_LatLon0.15_PT063H.grib2 2026-05-06 18:43 6.2M
20260506T12Z_MSC_GDPS_Snow-Accum1h_Sfc_LatLon0.15_PT063H.grib2 2026-05-06 18:43 1.1M
20260506T12Z_MSC_GDPS_Snow-Accum3h_Sfc_LatLon0.15_PT063H.grib2 2026-05-06 18:43 1.0M
20260506T12Z_MSC_GDPS_Snow-Accum_Sfc_LatLon0.15_PT063H.grib2 2026-05-06 18:43 1.9M
20260506T12Z_MSC_GDPS_SnowDensity_Sfc_LatLon0.15_PT063H.grib2 2026-05-06 18:43 255K
20260506T12Z_MSC_GDPS_SnowDepth_Sfc_LatLon0.15_PT063H.grib2 2026-05-06 18:43 1.7M
20260506T12Z_MSC_GDPS_SoilTemp_DBS-0to10cm_LatLon0.15_PT063H.grib2 2026-05-06 18:43 508K
20260506T12Z_MSC_GDPS_SoilTemp_Sfc_LatLon0.15_PT063H.grib2 2026-05-06 18:43 579K
20260506T12Z_MSC_GDPS_SoilVolumetricIceContent_Sfc_LatLon0.15_PT063H.grib2 2026-05-06 18:43 181K
20260506T12Z_MSC_GDPS_SoilVolumetricWaterContent_DBS-0to10cm_LatLon0.15_PT063H.grib2 2026-05-06 18:43 598K
20260506T12Z_MSC_GDPS_SoilVolumetricWaterContent_DBS-0to1cm_LatLon0.15_PT063H.grib2 2026-05-06 18:43 655K
20260506T12Z_MSC_GDPS_SpecificHumidity_AGL-120m_LatLon0.15_PT063H.grib2 2026-05-06 18:43 1.1M
20260506T12Z_MSC_GDPS_SpecificHumidity_AGL-2m_LatLon0.15_PT063H.grib2 2026-05-06 18:43 1.2M
20260506T12Z_MSC_GDPS_SpecificHumidity_AGL-40m_LatLon0.15_PT063H.grib2 2026-05-06 18:43 1.1M
20260506T12Z_MSC_GDPS_SpecificHumidity_AGL-80m_LatLon0.15_PT063H.grib2 2026-05-06 18:43 1.1M
20260506T12Z_MSC_GDPS_SpecificHumidity_IsbL-0001_LatLon0.15_PT063H.grib2 2026-05-06 18:43 1.3M
20260506T12Z_MSC_GDPS_SpecificHumidity_IsbL-0005_LatLon0.15_PT063H.grib2 2026-05-06 18:43 1.2M
20260506T12Z_MSC_GDPS_SpecificHumidity_IsbL-0010_LatLon0.15_PT063H.grib2 2026-05-06 18:43 1.3M
20260506T12Z_MSC_GDPS_SpecificHumidity_IsbL-0020_LatLon0.15_PT063H.grib2 2026-05-06 18:43 1.3M
20260506T12Z_MSC_GDPS_SpecificHumidity_IsbL-0030_LatLon0.15_PT063H.grib2 2026-05-06 18:43 1.3M
20260506T12Z_MSC_GDPS_SpecificHumidity_IsbL-0050_LatLon0.15_PT063H.grib2 2026-05-06 18:43 1.3M
20260506T12Z_MSC_GDPS_SpecificHumidity_IsbL-0100_LatLon0.15_PT063H.grib2 2026-05-06 18:43 1.3M
20260506T12Z_MSC_GDPS_SpecificHumidity_IsbL-0150_LatLon0.15_PT063H.grib2 2026-05-06 18:43 1.3M
20260506T12Z_MSC_GDPS_SpecificHumidity_IsbL-0175_LatLon0.15_PT063H.grib2 2026-05-06 18:43 1.3M
20260506T12Z_MSC_GDPS_SpecificHumidity_IsbL-0200_LatLon0.15_PT063H.grib2 2026-05-06 18:43 1.3M
20260506T12Z_MSC_GDPS_SpecificHumidity_IsbL-0225_LatLon0.15_PT063H.grib2 2026-05-06 18:43 1.3M
20260506T12Z_MSC_GDPS_SpecificHumidity_IsbL-0250_LatLon0.15_PT063H.grib2 2026-05-06 18:43 1.5M
20260506T12Z_MSC_GDPS_SpecificHumidity_IsbL-0275_LatLon0.15_PT063H.grib2 2026-05-06 18:43 1.3M
20260506T12Z_MSC_GDPS_SpecificHumidity_IsbL-0300_LatLon0.15_PT063H.grib2 2026-05-06 18:43 1.3M
20260506T12Z_MSC_GDPS_SpecificHumidity_IsbL-0350_LatLon0.15_PT063H.grib2 2026-05-06 18:43 1.2M
20260506T12Z_MSC_GDPS_SpecificHumidity_IsbL-0400_LatLon0.15_PT063H.grib2 2026-05-06 18:43 1.5M
20260506T12Z_MSC_GDPS_SpecificHumidity_IsbL-0450_LatLon0.15_PT063H.grib2 2026-05-06 18:43 1.6M
20260506T12Z_MSC_GDPS_SpecificHumidity_IsbL-0500_LatLon0.15_PT063H.grib2 2026-05-06 18:43 1.4M
20260506T12Z_MSC_GDPS_SpecificHumidity_IsbL-0550_LatLon0.15_PT063H.grib2 2026-05-06 18:43 1.6M
20260506T12Z_MSC_GDPS_SpecificHumidity_IsbL-0600_LatLon0.15_PT063H.grib2 2026-05-06 18:43 1.7M
20260506T12Z_MSC_GDPS_SpecificHumidity_IsbL-0650_LatLon0.15_PT063H.grib2 2026-05-06 18:43 1.5M
20260506T12Z_MSC_GDPS_SpecificHumidity_IsbL-0700_LatLon0.15_PT063H.grib2 2026-05-06 18:43 1.6M
20260506T12Z_MSC_GDPS_SpecificHumidity_IsbL-0750_LatLon0.15_PT063H.grib2 2026-05-06 18:43 1.7M
20260506T12Z_MSC_GDPS_SpecificHumidity_IsbL-0800_LatLon0.15_PT063H.grib2 2026-05-06 18:43 1.9M
20260506T12Z_MSC_GDPS_SpecificHumidity_IsbL-0850_LatLon0.15_PT063H.grib2 2026-05-06 18:43 2.0M
20260506T12Z_MSC_GDPS_SpecificHumidity_IsbL-0875_LatLon0.15_PT063H.grib2 2026-05-06 18:43 2.0M
20260506T12Z_MSC_GDPS_SpecificHumidity_IsbL-0900_LatLon0.15_PT063H.grib2 2026-05-06 18:43 1.9M
20260506T12Z_MSC_GDPS_SpecificHumidity_IsbL-0925_LatLon0.15_PT063H.grib2 2026-05-06 18:43 1.9M
20260506T12Z_MSC_GDPS_SpecificHumidity_IsbL-0950_LatLon0.15_PT063H.grib2 2026-05-06 18:43 1.6M
20260506T12Z_MSC_GDPS_SpecificHumidity_IsbL-0970_LatLon0.15_PT063H.grib2 2026-05-06 18:43 1.5M
20260506T12Z_MSC_GDPS_SpecificHumidity_IsbL-0985_LatLon0.15_PT063H.grib2 2026-05-06 18:43 1.5M
20260506T12Z_MSC_GDPS_SpecificHumidity_IsbL-1000_LatLon0.15_PT063H.grib2 2026-05-06 18:43 1.5M
20260506T12Z_MSC_GDPS_SpecificHumidity_IsbL-1015_LatLon0.15_PT063H.grib2 2026-05-06 18:43 1.5M
20260506T12Z_MSC_GDPS_SpecificHumidity_Sfc_LatLon0.15_PT063H.grib2 2026-05-06 18:43 641K
20260506T12Z_MSC_GDPS_Thickness_IsbL-0850to0700_LatLon0.15_PT063H.grib2 2026-05-06 18:43 470K
20260506T12Z_MSC_GDPS_Thickness_IsbL-1000to0500_LatLon0.15_PT063H.grib2 2026-05-06 18:43 376K
20260506T12Z_MSC_GDPS_Thickness_IsbL-1000to0850_LatLon0.15_PT063H.grib2 2026-05-06 18:43 493K
20260506T12Z_MSC_GDPS_TotalCloudCover_Sfc_LatLon0.15_PT063H.grib2 2026-05-06 18:43 822K
20260506T12Z_MSC_GDPS_TotalTotalsIndex_Sfc_LatLon0.15_PT063H.grib2 2026-05-06 18:43 6.2M
20260506T12Z_MSC_GDPS_UVIndex-ClearSky_Sfc_LatLon0.15_PT063H.grib2 2026-05-06 18:20 1.0M
20260506T12Z_MSC_GDPS_UVIndex_Sfc_LatLon0.15_PT063H.grib2 2026-05-06 18:20 1.5M
20260506T12Z_MSC_GDPS_UpwardLongwaveRadiationFlux_NTAtm_LatLon0.15_PT063H.grib2 2026-05-06 18:43 1.0M
20260506T12Z_MSC_GDPS_VerticalVelocity_IsbL-0200_LatLon0.15_PT063H.grib2 2026-05-06 18:43 949K
20260506T12Z_MSC_GDPS_VerticalVelocity_IsbL-0250_LatLon0.15_PT063H.grib2 2026-05-06 18:43 1.1M
20260506T12Z_MSC_GDPS_VerticalVelocity_IsbL-0500_LatLon0.15_PT063H.grib2 2026-05-06 18:43 1.3M
20260506T12Z_MSC_GDPS_VerticalVelocity_IsbL-0600_LatLon0.15_PT063H.grib2 2026-05-06 18:43 1.0M
20260506T12Z_MSC_GDPS_VerticalVelocity_IsbL-0700_LatLon0.15_PT063H.grib2 2026-05-06 18:43 1.1M
20260506T12Z_MSC_GDPS_VerticalVelocity_IsbL-0850_LatLon0.15_PT063H.grib2 2026-05-06 18:43 1.3M
20260506T12Z_MSC_GDPS_WindChill_Sfc_LatLon0.15_PT063H.grib2 2026-05-06 18:43 5.3M
20260506T12Z_MSC_GDPS_WindDir_AGL-10m_LatLon0.15_PT063H.grib2 2026-05-06 18:43 1.3M
20260506T12Z_MSC_GDPS_WindDir_AGL-120m_LatLon0.15_PT063H.grib2 2026-05-06 18:43 1.3M
20260506T12Z_MSC_GDPS_WindDir_AGL-40m_LatLon0.15_PT063H.grib2 2026-05-06 18:43 1.4M
20260506T12Z_MSC_GDPS_WindDir_AGL-80m_LatLon0.15_PT063H.grib2 2026-05-06 18:43 1.3M
20260506T12Z_MSC_GDPS_WindDir_IsbL-0001_LatLon0.15_PT063H.grib2 2026-05-06 18:43 658K
20260506T12Z_MSC_GDPS_WindDir_IsbL-0005_LatLon0.15_PT063H.grib2 2026-05-06 18:43 816K
20260506T12Z_MSC_GDPS_WindDir_IsbL-0010_LatLon0.15_PT063H.grib2 2026-05-06 18:43 853K
20260506T12Z_MSC_GDPS_WindDir_IsbL-0020_LatLon0.15_PT063H.grib2 2026-05-06 18:43 936K
20260506T12Z_MSC_GDPS_WindDir_IsbL-0030_LatLon0.15_PT063H.grib2 2026-05-06 18:43 951K
20260506T12Z_MSC_GDPS_WindDir_IsbL-0050_LatLon0.15_PT063H.grib2 2026-05-06 18:43 960K
20260506T12Z_MSC_GDPS_WindDir_IsbL-0100_LatLon0.15_PT063H.grib2 2026-05-06 18:43 1.0M
20260506T12Z_MSC_GDPS_WindDir_IsbL-0150_LatLon0.15_PT063H.grib2 2026-05-06 18:43 1.0M
20260506T12Z_MSC_GDPS_WindDir_IsbL-0175_LatLon0.15_PT063H.grib2 2026-05-06 18:43 1.1M
20260506T12Z_MSC_GDPS_WindDir_IsbL-0200_LatLon0.15_PT063H.grib2 2026-05-06 18:43 1.1M
20260506T12Z_MSC_GDPS_WindDir_IsbL-0225_LatLon0.15_PT063H.grib2 2026-05-06 18:43 1.1M
20260506T12Z_MSC_GDPS_WindDir_IsbL-0250_LatLon0.15_PT063H.grib2 2026-05-06 18:43 1.1M
20260506T12Z_MSC_GDPS_WindDir_IsbL-0275_LatLon0.15_PT063H.grib2 2026-05-06 18:43 1.2M
20260506T12Z_MSC_GDPS_WindDir_IsbL-0300_LatLon0.15_PT063H.grib2 2026-05-06 18:43 1.2M
20260506T12Z_MSC_GDPS_WindDir_IsbL-0350_LatLon0.15_PT063H.grib2 2026-05-06 18:43 1.2M
20260506T12Z_MSC_GDPS_WindDir_IsbL-0400_LatLon0.15_PT063H.grib2 2026-05-06 18:43 1.3M
20260506T12Z_MSC_GDPS_WindDir_IsbL-0450_LatLon0.15_PT063H.grib2 2026-05-06 18:43 1.3M
20260506T12Z_MSC_GDPS_WindDir_IsbL-0500_LatLon0.15_PT063H.grib2 2026-05-06 18:43 1.3M
20260506T12Z_MSC_GDPS_WindDir_IsbL-0550_LatLon0.15_PT063H.grib2 2026-05-06 18:43 1.4M
20260506T12Z_MSC_GDPS_WindDir_IsbL-0600_LatLon0.15_PT063H.grib2 2026-05-06 18:43 1.4M
20260506T12Z_MSC_GDPS_WindDir_IsbL-0650_LatLon0.15_PT063H.grib2 2026-05-06 18:43 1.5M
20260506T12Z_MSC_GDPS_WindDir_IsbL-0700_LatLon0.15_PT063H.grib2 2026-05-06 18:43 1.5M
20260506T12Z_MSC_GDPS_WindDir_IsbL-0750_LatLon0.15_PT063H.grib2 2026-05-06 18:43 1.6M
20260506T12Z_MSC_GDPS_WindDir_IsbL-0800_LatLon0.15_PT063H.grib2 2026-05-06 18:43 1.8M
20260506T12Z_MSC_GDPS_WindDir_IsbL-0850_LatLon0.15_PT063H.grib2 2026-05-06 18:43 1.9M
20260506T12Z_MSC_GDPS_WindDir_IsbL-0875_LatLon0.15_PT063H.grib2 2026-05-06 18:43 1.9M
20260506T12Z_MSC_GDPS_WindDir_IsbL-0900_LatLon0.15_PT063H.grib2 2026-05-06 18:43 1.9M
20260506T12Z_MSC_GDPS_WindDir_IsbL-0925_LatLon0.15_PT063H.grib2 2026-05-06 18:43 1.9M
20260506T12Z_MSC_GDPS_WindDir_IsbL-0950_LatLon0.15_PT063H.grib2 2026-05-06 18:43 1.9M
20260506T12Z_MSC_GDPS_WindDir_IsbL-0970_LatLon0.15_PT063H.grib2 2026-05-06 18:43 2.0M
20260506T12Z_MSC_GDPS_WindDir_IsbL-0985_LatLon0.15_PT063H.grib2 2026-05-06 18:43 2.0M
20260506T12Z_MSC_GDPS_WindDir_IsbL-1000_LatLon0.15_PT063H.grib2 2026-05-06 18:43 2.0M
20260506T12Z_MSC_GDPS_WindDir_IsbL-1015_LatLon0.15_PT063H.grib2 2026-05-06 18:43 2.0M
20260506T12Z_MSC_GDPS_WindGust-Max_AGL-10m_LatLon0.15_PT063H.grib2 2026-05-06 18:43 2.2M
20260506T12Z_MSC_GDPS_WindGust-Min_AGL-10m_LatLon0.15_PT063H.grib2 2026-05-06 18:43 2.1M
20260506T12Z_MSC_GDPS_WindGust_AGL-10m_LatLon0.15_PT063H.grib2 2026-05-06 18:43 2.1M
20260506T12Z_MSC_GDPS_WindSpeed_AGL-10m_LatLon0.15_PT063H.grib2 2026-05-06 18:43 1.1M
20260506T12Z_MSC_GDPS_WindSpeed_AGL-120m_LatLon0.15_PT063H.grib2 2026-05-06 18:43 1.2M
20260506T12Z_MSC_GDPS_WindSpeed_AGL-40m_LatLon0.15_PT063H.grib2 2026-05-06 18:43 1.2M
20260506T12Z_MSC_GDPS_WindSpeed_AGL-80m_LatLon0.15_PT063H.grib2 2026-05-06 18:43 1.2M
20260506T12Z_MSC_GDPS_WindSpeed_IsbL-0001_LatLon0.15_PT063H.grib2 2026-05-06 18:43 651K
20260506T12Z_MSC_GDPS_WindSpeed_IsbL-0005_LatLon0.15_PT063H.grib2 2026-05-06 18:43 701K
20260506T12Z_MSC_GDPS_WindSpeed_IsbL-0010_LatLon0.15_PT063H.grib2 2026-05-06 18:43 634K
20260506T12Z_MSC_GDPS_WindSpeed_IsbL-0020_LatLon0.15_PT063H.grib2 2026-05-06 18:43 669K
20260506T12Z_MSC_GDPS_WindSpeed_IsbL-0030_LatLon0.15_PT063H.grib2 2026-05-06 18:43 874K
20260506T12Z_MSC_GDPS_WindSpeed_IsbL-0050_LatLon0.15_PT063H.grib2 2026-05-06 18:43 907K
20260506T12Z_MSC_GDPS_WindSpeed_IsbL-0100_LatLon0.15_PT063H.grib2 2026-05-06 18:43 1.1M
20260506T12Z_MSC_GDPS_WindSpeed_IsbL-0150_LatLon0.15_PT063H.grib2 2026-05-06 18:43 941K
20260506T12Z_MSC_GDPS_WindSpeed_IsbL-0175_LatLon0.15_PT063H.grib2 2026-05-06 18:43 1.0M
20260506T12Z_MSC_GDPS_WindSpeed_IsbL-0200_LatLon0.15_PT063H.grib2 2026-05-06 18:43 1.1M
20260506T12Z_MSC_GDPS_WindSpeed_IsbL-0225_LatLon0.15_PT063H.grib2 2026-05-06 18:43 1.1M
20260506T12Z_MSC_GDPS_WindSpeed_IsbL-0250_LatLon0.15_PT063H.grib2 2026-05-06 18:43 1.1M
20260506T12Z_MSC_GDPS_WindSpeed_IsbL-0275_LatLon0.15_PT063H.grib2 2026-05-06 18:43 1.1M
20260506T12Z_MSC_GDPS_WindSpeed_IsbL-0300_LatLon0.15_PT063H.grib2 2026-05-06 18:43 1.1M
20260506T12Z_MSC_GDPS_WindSpeed_IsbL-0350_LatLon0.15_PT063H.grib2 2026-05-06 18:43 1.1M
20260506T12Z_MSC_GDPS_WindSpeed_IsbL-0400_LatLon0.15_PT063H.grib2 2026-05-06 18:43 1.1M
20260506T12Z_MSC_GDPS_WindSpeed_IsbL-0450_LatLon0.15_PT063H.grib2 2026-05-06 18:43 1.1M
20260506T12Z_MSC_GDPS_WindSpeed_IsbL-0500_LatLon0.15_PT063H.grib2 2026-05-06 18:43 1.1M
20260506T12Z_MSC_GDPS_WindSpeed_IsbL-0550_LatLon0.15_PT063H.grib2 2026-05-06 18:43 1.1M
20260506T12Z_MSC_GDPS_WindSpeed_IsbL-0600_LatLon0.15_PT063H.grib2 2026-05-06 18:43 1.1M
20260506T12Z_MSC_GDPS_WindSpeed_IsbL-0650_LatLon0.15_PT063H.grib2 2026-05-06 18:43 1.2M
20260506T12Z_MSC_GDPS_WindSpeed_IsbL-0700_LatLon0.15_PT063H.grib2 2026-05-06 18:43 1.5M
20260506T12Z_MSC_GDPS_WindSpeed_IsbL-0750_LatLon0.15_PT063H.grib2 2026-05-06 18:43 1.6M
20260506T12Z_MSC_GDPS_WindSpeed_IsbL-0800_LatLon0.15_PT063H.grib2 2026-05-06 18:43 1.6M
20260506T12Z_MSC_GDPS_WindSpeed_IsbL-0850_LatLon0.15_PT063H.grib2 2026-05-06 18:43 1.7M
20260506T12Z_MSC_GDPS_WindSpeed_IsbL-0875_LatLon0.15_PT063H.grib2 2026-05-06 18:43 1.8M
20260506T12Z_MSC_GDPS_WindSpeed_IsbL-0900_LatLon0.15_PT063H.grib2 2026-05-06 18:43 1.8M
20260506T12Z_MSC_GDPS_WindSpeed_IsbL-0925_LatLon0.15_PT063H.grib2 2026-05-06 18:43 1.8M
20260506T12Z_MSC_GDPS_WindSpeed_IsbL-0950_LatLon0.15_PT063H.grib2 2026-05-06 18:43 1.8M
20260506T12Z_MSC_GDPS_WindSpeed_IsbL-0970_LatLon0.15_PT063H.grib2 2026-05-06 18:43 1.9M
20260506T12Z_MSC_GDPS_WindSpeed_IsbL-0985_LatLon0.15_PT063H.grib2 2026-05-06 18:43 1.9M
20260506T12Z_MSC_GDPS_WindSpeed_IsbL-1000_LatLon0.15_PT063H.grib2 2026-05-06 18:43 1.9M
20260506T12Z_MSC_GDPS_WindSpeed_IsbL-1015_LatLon0.15_PT063H.grib2 2026-05-06 18:43 1.8M
20260506T12Z_MSC_GDPS_WindU_AGL-10m_LatLon0.15_PT063H.grib2 2026-05-06 18:43 1.3M
20260506T12Z_MSC_GDPS_WindU_AGL-120m_LatLon0.15_PT063H.grib2 2026-05-06 18:43 966K
20260506T12Z_MSC_GDPS_WindU_AGL-40m_LatLon0.15_PT063H.grib2 2026-05-06 18:43 959K
20260506T12Z_MSC_GDPS_WindU_AGL-80m_LatLon0.15_PT063H.grib2 2026-05-06 18:43 965K
20260506T12Z_MSC_GDPS_WindU_IsbL-0001_LatLon0.15_PT063H.grib2 2026-05-06 18:43 508K
20260506T12Z_MSC_GDPS_WindU_IsbL-0005_LatLon0.15_PT063H.grib2 2026-05-06 18:43 700K
20260506T12Z_MSC_GDPS_WindU_IsbL-0010_LatLon0.15_PT063H.grib2 2026-05-06 18:43 710K
20260506T12Z_MSC_GDPS_WindU_IsbL-0020_LatLon0.15_PT063H.grib2 2026-05-06 18:43 736K
20260506T12Z_MSC_GDPS_WindU_IsbL-0030_LatLon0.15_PT063H.grib2 2026-05-06 18:43 749K
20260506T12Z_MSC_GDPS_WindU_IsbL-0050_LatLon0.15_PT063H.grib2 2026-05-06 18:43 771K
20260506T12Z_MSC_GDPS_WindU_IsbL-0100_LatLon0.15_PT063H.grib2 2026-05-06 18:43 865K
20260506T12Z_MSC_GDPS_WindU_IsbL-0150_LatLon0.15_PT063H.grib2 2026-05-06 18:43 1.0M
20260506T12Z_MSC_GDPS_WindU_IsbL-0175_LatLon0.15_PT063H.grib2 2026-05-06 18:43 1.0M
20260506T12Z_MSC_GDPS_WindU_IsbL-0200_LatLon0.15_PT063H.grib2 2026-05-06 18:43 844K
20260506T12Z_MSC_GDPS_WindU_IsbL-0225_LatLon0.15_PT063H.grib2 2026-05-06 18:43 852K
20260506T12Z_MSC_GDPS_WindU_IsbL-0250_LatLon0.15_PT063H.grib2 2026-05-06 18:43 850K
20260506T12Z_MSC_GDPS_WindU_IsbL-0275_LatLon0.15_PT063H.grib2 2026-05-06 18:43 875K
20260506T12Z_MSC_GDPS_WindU_IsbL-0300_LatLon0.15_PT063H.grib2 2026-05-06 18:43 866K
20260506T12Z_MSC_GDPS_WindU_IsbL-0350_LatLon0.15_PT063H.grib2 2026-05-06 18:43 882K
20260506T12Z_MSC_GDPS_WindU_IsbL-0400_LatLon0.15_PT063H.grib2 2026-05-06 18:43 1.1M
20260506T12Z_MSC_GDPS_WindU_IsbL-0450_LatLon0.15_PT063H.grib2 2026-05-06 18:43 1.1M
20260506T12Z_MSC_GDPS_WindU_IsbL-0500_LatLon0.15_PT063H.grib2 2026-05-06 18:43 1.1M
20260506T12Z_MSC_GDPS_WindU_IsbL-0550_LatLon0.15_PT063H.grib2 2026-05-06 18:43 1.1M
20260506T12Z_MSC_GDPS_WindU_IsbL-0600_LatLon0.15_PT063H.grib2 2026-05-06 18:43 1.1M
20260506T12Z_MSC_GDPS_WindU_IsbL-0650_LatLon0.15_PT063H.grib2 2026-05-06 18:43 1.2M
20260506T12Z_MSC_GDPS_WindU_IsbL-0700_LatLon0.15_PT063H.grib2 2026-05-06 18:43 1.2M
20260506T12Z_MSC_GDPS_WindU_IsbL-0750_LatLon0.15_PT063H.grib2 2026-05-06 18:43 1.3M
20260506T12Z_MSC_GDPS_WindU_IsbL-0800_LatLon0.15_PT063H.grib2 2026-05-06 18:43 1.3M
20260506T12Z_MSC_GDPS_WindU_IsbL-0850_LatLon0.15_PT063H.grib2 2026-05-06 18:43 1.4M
20260506T12Z_MSC_GDPS_WindU_IsbL-0875_LatLon0.15_PT063H.grib2 2026-05-06 18:43 1.4M
20260506T12Z_MSC_GDPS_WindU_IsbL-0900_LatLon0.15_PT063H.grib2 2026-05-06 18:43 1.5M
20260506T12Z_MSC_GDPS_WindU_IsbL-0925_LatLon0.15_PT063H.grib2 2026-05-06 18:43 1.4M
20260506T12Z_MSC_GDPS_WindU_IsbL-0950_LatLon0.15_PT063H.grib2 2026-05-06 18:43 1.4M
20260506T12Z_MSC_GDPS_WindU_IsbL-0970_LatLon0.15_PT063H.grib2 2026-05-06 18:43 1.4M
20260506T12Z_MSC_GDPS_WindU_IsbL-0985_LatLon0.15_PT063H.grib2 2026-05-06 18:43 1.4M
20260506T12Z_MSC_GDPS_WindU_IsbL-1000_LatLon0.15_PT063H.grib2 2026-05-06 18:43 1.4M
20260506T12Z_MSC_GDPS_WindU_IsbL-1015_LatLon0.15_PT063H.grib2 2026-05-06 18:43 1.3M
20260506T12Z_MSC_GDPS_WindV_AGL-10m_LatLon0.15_PT063H.grib2 2026-05-06 18:43 1.3M
20260506T12Z_MSC_GDPS_WindV_AGL-120m_LatLon0.15_PT063H.grib2 2026-05-06 18:43 1.0M
20260506T12Z_MSC_GDPS_WindV_AGL-40m_LatLon0.15_PT063H.grib2 2026-05-06 18:43 961K
20260506T12Z_MSC_GDPS_WindV_AGL-80m_LatLon0.15_PT063H.grib2 2026-05-06 18:43 1.0M
20260506T12Z_MSC_GDPS_WindV_IsbL-0001_LatLon0.15_PT063H.grib2 2026-05-06 18:43 792K
20260506T12Z_MSC_GDPS_WindV_IsbL-0005_LatLon0.15_PT063H.grib2 2026-05-06 18:43 777K
20260506T12Z_MSC_GDPS_WindV_IsbL-0010_LatLon0.15_PT063H.grib2 2026-05-06 18:43 803K
20260506T12Z_MSC_GDPS_WindV_IsbL-0020_LatLon0.15_PT063H.grib2 2026-05-06 18:43 854K
20260506T12Z_MSC_GDPS_WindV_IsbL-0030_LatLon0.15_PT063H.grib2 2026-05-06 18:43 946K
20260506T12Z_MSC_GDPS_WindV_IsbL-0050_LatLon0.15_PT063H.grib2 2026-05-06 18:43 1.0M
20260506T12Z_MSC_GDPS_WindV_IsbL-0100_LatLon0.15_PT063H.grib2 2026-05-06 18:43 857K
20260506T12Z_MSC_GDPS_WindV_IsbL-0150_LatLon0.15_PT063H.grib2 2026-05-06 18:43 1.0M
20260506T12Z_MSC_GDPS_WindV_IsbL-0175_LatLon0.15_PT063H.grib2 2026-05-06 18:43 817K
20260506T12Z_MSC_GDPS_WindV_IsbL-0200_LatLon0.15_PT063H.grib2 2026-05-06 18:43 903K
20260506T12Z_MSC_GDPS_WindV_IsbL-0225_LatLon0.15_PT063H.grib2 2026-05-06 18:43 910K
20260506T12Z_MSC_GDPS_WindV_IsbL-0250_LatLon0.15_PT063H.grib2 2026-05-06 18:43 909K
20260506T12Z_MSC_GDPS_WindV_IsbL-0275_LatLon0.15_PT063H.grib2 2026-05-06 18:43 931K
20260506T12Z_MSC_GDPS_WindV_IsbL-0300_LatLon0.15_PT063H.grib2 2026-05-06 18:43 922K
20260506T12Z_MSC_GDPS_WindV_IsbL-0350_LatLon0.15_PT063H.grib2 2026-05-06 18:43 935K
20260506T12Z_MSC_GDPS_WindV_IsbL-0400_LatLon0.15_PT063H.grib2 2026-05-06 18:43 878K
20260506T12Z_MSC_GDPS_WindV_IsbL-0450_LatLon0.15_PT063H.grib2 2026-05-06 18:43 878K
20260506T12Z_MSC_GDPS_WindV_IsbL-0500_LatLon0.15_PT063H.grib2 2026-05-06 18:43 1.1M
20260506T12Z_MSC_GDPS_WindV_IsbL-0550_LatLon0.15_PT063H.grib2 2026-05-06 18:43 1.1M
20260506T12Z_MSC_GDPS_WindV_IsbL-0600_LatLon0.15_PT063H.grib2 2026-05-06 18:43 1.1M
20260506T12Z_MSC_GDPS_WindV_IsbL-0650_LatLon0.15_PT063H.grib2 2026-05-06 18:43 1.2M
20260506T12Z_MSC_GDPS_WindV_IsbL-0700_LatLon0.15_PT063H.grib2 2026-05-06 18:43 1.2M
20260506T12Z_MSC_GDPS_WindV_IsbL-0750_LatLon0.15_PT063H.grib2 2026-05-06 18:43 1.3M
20260506T12Z_MSC_GDPS_WindV_IsbL-0800_LatLon0.15_PT063H.grib2 2026-05-06 18:43 1.3M
20260506T12Z_MSC_GDPS_WindV_IsbL-0850_LatLon0.15_PT063H.grib2 2026-05-06 18:43 1.4M
20260506T12Z_MSC_GDPS_WindV_IsbL-0875_LatLon0.15_PT063H.grib2 2026-05-06 18:43 1.4M
20260506T12Z_MSC_GDPS_WindV_IsbL-0900_LatLon0.15_PT063H.grib2 2026-05-06 18:43 1.5M
20260506T12Z_MSC_GDPS_WindV_IsbL-0925_LatLon0.15_PT063H.grib2 2026-05-06 18:43 1.4M
20260506T12Z_MSC_GDPS_WindV_IsbL-0950_LatLon0.15_PT063H.grib2 2026-05-06 18:43 1.4M
20260506T12Z_MSC_GDPS_WindV_IsbL-0970_LatLon0.15_PT063H.grib2 2026-05-06 18:43 1.4M
20260506T12Z_MSC_GDPS_WindV_IsbL-0985_LatLon0.15_PT063H.grib2 2026-05-06 18:43 1.4M
20260506T12Z_MSC_GDPS_WindV_IsbL-1000_LatLon0.15_PT063H.grib2 2026-05-06 18:43 1.4M
20260506T12Z_MSC_GDPS_WindV_IsbL-1015_LatLon0.15_PT063H.grib2 2026-05-06 18:43 1.3M